Weather History for Pellston, MI

Change the Weather History Date:

Tuesday, November 8, 2011

  Actual Average Record
Temperature  
Mean Temperature 38 °F -  
Max Temperature 42 °F 45 °F 62 °F (1986)
Min Temperature 34 °F 29 °F 10 °F (1991)
Degree Days  
Heating Degree Days 27    
Moisture  
Dew Point 39 °F    
Average Humidity 97    
Maximum Humidity 100    
Minimum Humidity 93    
Precipitation  
Precipitation 0.63 in - - ()
Sea Level Pressure  
Sea Level Pressure 30.18 in    
Wind  
Wind Speed 3 mph (ENE)    
Max Wind Speed 8 mph    
Max Gust Speed -    
Visibility 7 miles    
Events Rain    
Averages and records for this station are not official NWS values.
T = Trace of Precipitation, MM = Missing Value Source: NWS Daily Summary

Daily Weather History Graph

Daily Weather History Graph

Search for Another Location

Airport:

Trip Planner

Search our weather history database for the weather conditions in past years. The results will help you decide how hot, cold, wet, or windy it might be!

Date:

Astronomy

Nov. 08, 2011 Rise Set
Actual Time 7:28 AM EST 5:16 PM EST
Civil Twilight 6:56 AM EST 5:48 PM EST
Nautical Twilight 6:21 AM EST 6:23 PM EST
Astronomical Twilight 5:46 AM EST 6:58 PM EST
Moon 3:58 PM EST (11/8) 5:23 AM EST (11/8)
Length of Visible Light 10h 51m
Length of Day
9h 48m
Waxing Gibbous, 96% of the Moon is Illuminated
Nov 8
Waxing Gibbous
Nov 10
Full
Nov 18
Last Quarter
Nov 25
New
Dec 2
First Quarter

Hourly Weather History & Observations

Time (EST) Temp. Windchill Dew Point Humidity Pressure Visibility Wind Dir Wind Speed Gust Speed Precip Events Conditions
12:54 AM 36.0 °F - 34.0 °F 93% 30.21 in 10.0 mi Calm Calm - N/A   Clear
1:54 AM 34.0 °F - 33.1 °F 96% 30.22 in 10.0 mi Calm Calm - N/A   Clear
2:54 AM 35.1 °F - 34.0 °F 96% 30.21 in 10.0 mi Calm Calm - N/A   Clear
3:54 AM 35.6 °F - 35.6 °F 100% 30.20 in 10.0 mi Calm Calm - N/A   Scattered Clouds
4:54 AM 36.0 °F - 35.1 °F 97% 30.24 in 10.0 mi Calm Calm - N/A   Overcast
5:54 AM 37.9 °F - 36.0 °F 93% 30.24 in 7.0 mi Calm Calm - 0.00 in Rain Light Rain
6:54 AM 37.0 °F - 37.0 °F 100% 30.24 in 4.0 mi Calm Calm - 0.09 in Rain Rain
7:17 AM 37.4 °F - 37.4 °F 100% 30.23 in 2.5 mi Calm Calm - 0.07 in Rain Rain
7:46 AM 37.4 °F - 37.4 °F 100% 30.22 in 3.0 mi Calm Calm - 0.14 in Rain Rain
7:54 AM 37.9 °F - 37.9 °F 100% 30.24 in 3.0 mi Calm Calm - 0.16 in Rain Rain
8:01 AM 37.4 °F 34.9 °F 37.4 °F 100% 30.22 in 2.0 mi SE 3.5 mph - N/A Rain Rain
8:09 AM 37.4 °F 34.9 °F 37.4 °F 100% 30.22 in 1.8 mi SSE 3.5 mph - N/A Rain Rain
8:16 AM 39.2 °F 35.9 °F 39.2 °F 100% 30.21 in 2.5 mi SSE 4.6 mph - 0.03 in Rain Light Rain
8:26 AM 39.2 °F 35.9 °F 39.2 °F 100% 30.22 in 3.0 mi South 4.6 mph - 0.04 in Rain Rain
8:54 AM 39.9 °F 36.7 °F 39.9 °F 100% 30.23 in 4.0 mi SE 4.6 mph - 0.07 in Rain Light Rain
9:09 AM 39.2 °F - 39.2 °F 100% 30.21 in 5.0 mi Calm Calm - 0.01 in Rain Light Rain
9:23 AM 39.2 °F 37.0 °F 39.2 °F 100% 30.22 in 5.0 mi East 3.5 mph - 0.02 in Rain Light Rain
9:54 AM 41.0 °F 39.0 °F 39.9 °F 96% 30.24 in 5.0 mi East 3.5 mph - 0.07 in Rain Light Rain
10:42 AM 41.0 °F 39.0 °F 39.2 °F 93% 30.21 in 8.0 mi NE 3.5 mph - 0.02 in Rain Light Rain
10:54 AM 42.1 °F - 41.0 °F 96% 30.24 in 7.0 mi Calm Calm - 0.03 in Rain Light Rain
11:02 AM 41.0 °F 39.0 °F 39.2 °F 93% 30.21 in 6.0 mi ENE 3.5 mph - 0.00 in Rain Light Rain
11:20 AM 42.8 °F 41.1 °F 41.0 °F 93% 30.21 in 6.0 mi East 3.5 mph - 0.02 in Rain Light Rain
11:37 AM 42.8 °F - 41.0 °F 93% 30.21 in 6.0 mi Calm Calm - N/A Rain Light Rain
11:46 AM 42.8 °F - 41.0 °F 93% 30.21 in 7.0 mi Calm Calm - 0.04 in Rain Light Rain
11:54 AM 41.0 °F 39.0 °F 41.0 °F 100% 30.23 in 6.0 mi ENE 3.5 mph - 0.05 in Rain Light Rain
12:25 PM 42.8 °F 41.1 °F 41.0 °F 93% 30.20 in 6.0 mi East 3.5 mph - 0.03 in Rain Light Rain
12:54 PM 42.1 °F 40.2 °F 41.0 °F 96% 30.21 in 6.0 mi ENE 3.5 mph - 0.06 in Rain Light Rain
1:20 PM 41.0 °F 38.0 °F 39.2 °F 93% 30.17 in 5.0 mi ESE 4.6 mph - 0.03 in Rain Light Rain
1:44 PM 41.0 °F 38.0 °F 39.2 °F 93% 30.16 in 6.0 mi SE 4.6 mph - 0.04 in Rain Light Rain
1:54 PM 41.0 °F 39.0 °F 39.9 °F 96% 30.19 in 7.0 mi SE 3.5 mph - 0.05 in Rain Light Rain
2:17 PM 41.0 °F 39.0 °F 39.2 °F 93% 30.15 in 6.0 mi ESE 3.5 mph - 0.01 in Rain Light Rain
2:54 PM 41.0 °F - 39.0 °F 93% 30.18 in 8.0 mi Calm Calm - 0.03 in Rain Light Rain
3:19 PM 41.0 °F 37.1 °F 39.2 °F 93% 30.13 in 6.0 mi ENE 5.8 mph - 0.01 in Rain Light Rain
3:22 PM 41.0 °F 38.0 °F 39.2 °F 93% 30.13 in 7.0 mi NE 4.6 mph - 0.02 in Rain Light Rain
3:37 PM 41.0 °F 37.1 °F 39.2 °F 93% 30.13 in 10.0 mi ENE 5.8 mph - 0.02 in Rain Light Rain
3:44 PM 41.0 °F 37.1 °F 39.2 °F 93% 30.12 in 10.0 mi ENE 5.8 mph - 0.02 in Rain Light Rain
3:54 PM 41.0 °F 36.4 °F 39.2 °F 93% 30.13 in 10.0 mi NE 6.9 mph - N/A Rain Light Rain
4:22 PM 41.0 °F 36.4 °F 39.2 °F 93% 30.13 in 10.0 mi NNE 6.9 mph - 0.00 in Rain Light Rain
4:31 PM 41.0 °F 36.4 °F 39.2 °F 93% 30.14 in 7.0 mi NNE 6.9 mph - 0.00 in Rain Light Rain
4:39 PM 39.2 °F 34.2 °F 39.2 °F 100% 30.14 in 4.0 mi NNE 6.9 mph - 0.00 in Rain Light Rain
4:54 PM 39.9 °F 34.5 °F 39.0 °F 97% 30.17 in 5.0 mi NNE 8.1 mph - 0.00 in Rain Light Rain
5:21 PM 39.2 °F 34.2 °F 39.2 °F 100% 30.15 in 8.0 mi NNE 6.9 mph - 0.01 in Rain Light Rain
5:28 PM 39.2 °F 35.0 °F 39.2 °F 100% 30.16 in 7.0 mi NE 5.8 mph - 0.01 in Rain Light Rain
5:34 PM 39.2 °F 35.0 °F 39.2 °F 100% 30.15 in 7.0 mi NE 5.8 mph - 0.01 in Rain Light Rain
5:54 PM 39.9 °F 35.1 °F 39.0 °F 97% 30.18 in 6.0 mi NE 6.9 mph - 0.01 in Rain Light Rain
6:54 PM 39.0 °F 33.4 °F 39.0 °F 100% 30.19 in 10.0 mi NE 8.1 mph - 0.01 in   Overcast
7:02 PM 39.2 °F 34.2 °F 39.2 °F 100% 30.16 in 10.0 mi NE 6.9 mph - N/A   Overcast
7:28 PM 39.2 °F 33.6 °F 39.2 °F 100% 30.17 in 10.0 mi NNE 8.1 mph - N/A   Overcast
7:46 PM 39.2 °F 34.2 °F 39.2 °F 100% 30.16 in 10.0 mi NE 6.9 mph - N/A   Overcast
7:54 PM 39.2 °F 33.6 °F 39.2 °F 100% 30.15 in 10.0 mi NE 8.1 mph - N/A   Overcast
8:46 PM 39.2 °F 33.6 °F 39.2 °F 100% 30.14 in 10.0 mi NE 8.1 mph - N/A   Overcast
8:54 PM 39.9 °F 35.1 °F 39.0 °F 97% 30.16 in 10.0 mi NNE 6.9 mph - N/A   Overcast
9:54 PM 39.9 °F 35.8 °F 39.0 °F 97% 30.15 in 10.0 mi NNE 5.8 mph - N/A   Overcast
10:44 PM 39.2 °F 35.0 °F 39.2 °F 100% 30.11 in 10.0 mi NE 5.8 mph - N/A   Overcast
10:54 PM 39.9 °F 35.8 °F 39.0 °F 97% 30.14 in 10.0 mi NE 5.8 mph - N/A   Overcast
11:12 PM 39.2 °F 34.2 °F 39.2 °F 100% 30.11 in 10.0 mi NE 6.9 mph - N/A   Overcast
11:54 PM 39.9 °F 35.8 °F 39.0 °F 97% 30.12 in 10.0 mi NE 5.8 mph - N/A   Overcast